STARLINK-31924, 59904

Orbit data source: Space-Track

STARLINK-31924, 59904 is a payload satellite owned by SpaceX/Seattle (US) in LEO that was launched on Tue, 28 May 2024 UTC via an FALCON 9 launch vehicle from the Air Force Eastern Test Range (AFETR). Payload-class satellites include a variety of spacecraft equipped with specific instruments for various scientific and technological missions. These include communications satellites like Starlink; space stations such as the ISS; scientific satellites like the Hubble; Earth observation satellites from companies like Planet Labs, Umbra, and HawkEye 360; GPS; miniature CubeSats for education and research; and military/defense satellites.

Loading next visibility...
Identifier
59904, 2024-100V
Orbit
LEO
Country
Flag of USUS
Related business
Manufacturer
SpaceX/Seattle
Mission
Operational Commercial Communications
Bus & Motor
STARLINK V2M, Unknown motor
Mass
730 kg wet, ~700 kg dry
Launch date (UTC)
2024-05-28 (1 year ago)
Launch vehicle
FALCON 9
Launch site
Air Force Eastern Test Range (AFETR)
Object type
Payload
Rocket body
Debris
Shape & HBR
Box + 2 Pan, 17.7 m
Radar Cross Section
33.884 m², Large (>1 m²)

Expand to show TLE details & history
Last TLE update: 17 hours ago

TLE from 17 hours ago
0 STARLINK-31924
1 59904U 24100V   25310.79951808  .00000471  00000-0  26630-4 0  9995
2 59904  43.0041  99.3113 0001808 278.9672  81.0975 15.27586725 82351
Epoch: 2025-11-06T19:11Z
TLE epoch observation values (Epoch: 2025-11-06T19:11:18.362Z)
Latitude
-0°
Longitude
125.23214°
Altitude
482.613 km
Speed
7.626 km/s
True Right ascension
06h 37m 14s
True Declination
0° 00' 00"
Sunlit
Object was in full shadow at epoch
Visualization orbit readout
Latitude
Unknown
Longitude
Unknown
Altitude
Unknown
Speed
Unknown
Apparent Right ascension
Unknown
Apparent Declination
Unknown
Sunlit
N/A
Visualization observer readout
Local Sidereal Time
08:36:40
Azimuth
Unknown
Elevation
Unknown
Doppler factor
Unknown
Orbital elements
Apogee altitude
486.214 km
Perigee altitude
483.733 km
Semi-major axis
6,863.11 km
Eccentricity
0.00018
Inclination
43.0041°
RAAN
99.3113°
Arg. of periapsis
278.9672°
True anomaly
81.11797°
Mean anomaly
81.0975°
Eccentric anomaly
81.10773°
Mean motion
3.81735 °/min
Orbital period
94.31 mins
BSTAR
0.00002663
Loading maneuver chart data...
Computing Atmospheric mass density...
Loading historical data...
Loading historical data...
Loading historical data...
Loading historical data...
Loading historical data...
Loading historical data...
Loading historical data...

Documentation

Showing up to 5 results
|